Temperature
11 10 10 10 10 10 10 11 11 11 10 9 9 8 8 7 7 6 5 5 4 3 2 1 1 0 -0 -0 -1 -2 -3 -4 -5 -5 -5 -6 -6 -6 -6 -6 -6 -6 -6
10 10 10 10 10 10 10 10 10 10 9 8 8 8 7 7 6 5 4 3 2 2 1 0 -0 -1 -1 -2 -3 -4 -5 -5 -6 -6 -6 -7 -7 -7 -7 -7 -7 -7 -7
10 9 9 9 9 9 9 9 9 9 8 8 7 7 6 6 5 4 3 2 2 1 0 -0 -1 -2 -2 -3 -4 -5 -6 -6 -7 -7 -7 -7 -7 -7 -7 -7 -7 -7 -7
9 9 8 8 8 8 8 8 8 8 8 7 7 6 5 4 4 3 2 2 1 1 -0 -1 -2 -3 -4 -5 -5 -6 -7 -7 -8 -8 -8 -8 -8 -7 -7 -8 -8 -8 -8
8 7 7 6 7 7 7 7 7 7 7 7 6 5 4 4 3 2 1 1 0 0 -0 -1 -3 -4 -5 -6 -6 -7 -7 -8 -8 -8 -8 -8 -8 -8 -8 -8 -8 -9 -8
6 6 5 5 6 6 6 6 7 7 6 5 5 4 3 3 2 1 1 0 -0 -0 -1 -2 -3 -4 -5 -6 -7 -7 -8 -8 -8 -8 -8 -8 -8 -8 -9 -9 -9 -9 -9
4 4 4 4 4 4 5 6 6 5 5 4 4 3 2 2 1 0 -0 -0 -1 -1 -2 -4 -5 -6 -7 -7 -8 -8 -8 -8 -8 -8 -9 -9 -9 -9 -9 -9 -9 -9 -9
2 2 3 3 4 4 5 5 5 4 4 3 2 2 1 1 0 -0 -1 -1 -2 -2 -4 -6 -6 -7 -7 -8 -8 -8 -8 -8 -9 -9 -9 -9 -9 -9 -9 -9 -9 -9 -8
1 2 3 3 4 4 5 4 4 3 3 2 1 1 0 -0 -1 -1 -2 -2 -3 -4 -6 -7 -7 -8 -8 -8 -8 -9 -9 -8 -9 -9 -9 -9 -9 -9 -9 -9 -9 -9 -9
2 3 3 3 4 4 4 3 3 2 1 1 0 -0 -1 -1 -2 -3 -3 -4 -5 -6 -6 -7 -7 -8 -8 -8 -9 -9 -9 -9 -9 -9 -8 -8 -8 -8 -8 -9 -10 -10 -10
3 3 3 3 3 3 3 2 1 1 1 0 -0 -1 -2 -3 -4 -4 -5 -7 -8 -8 -8 -8 -8 -9 -9 -9 -9 -9 -9 -9 -9 -9 -9 -8 -8 -8 -8 -8 -9 -10 -10
3 3 3 3 2 2 1 1 0 0 -0 -1 -2 -3 -3 -4 -5 -6 -7 -8 -9 -9 -9 -9 -9 -9 -9 -9 -9 -9 -9 -10 -9 -9 -9 -8 -8 -8 -8 -8 -8 -8 -9
3 3 2 2 1 1 0 0 -0 -1 -1 -2 -3 -3 -4 -5 -6 -7 -7 -8 -9 -9 -9 -9 -9 -9 -9 -9 -9 -10 -10 -9 -10 -10 -9 -8 -8 -8 -8 -8 -7 -8 -8
2 2 1 1 0 -0 -0 -1 -1 -2 -2 -3 -3 -4 -5 -5 -7 -8 -8 -8 -8 -9 -9 -9 -9 -9 -9 -10 -10 -9 -9 -9 -10 -10 -9 -8 -8 -8 -8 -8 -8 -8 -8
1 1 0 -0 -0 -1 -1 -2 -2 -2 -3 -4 -4 -5 -6 -6 -7 -9 -9 -9 -10 -10 -10 -10 -9 -9 -9 -9 -9 -9 -9 -9 -9 -9 -8 -8 -8 -8 -8 -8 -8 -8 -9
1 -0 -0 -1 -1 -1 -2 -2 -3 -3 -4 -5 -5 -6 -7 -8 -9 -9 -9 -10 -10 -10 -10 -10 -10 -10 -10 -10 -10 -9 -9 -9 -9 -9 -8 -8 -8 -8 -8 -8 -8 -8 -9
-0 -1 -1 -1 -2 -2 -2 -3 -4 -4 -5 -6 -7 -8 -8 -9 -9 -10 -10 -10 -10 -10 -10 -10 -10 -10 -10 -10 -10 -10 -9 -9 -9 -8 -8 -8 -8 -8 -8 -8 -8 -8 -8
-1 -1 -1 -2 -2 -3 -3 -4 -5 -5 -6 -6 -7 -8 -9 -9 -10 -10 -11 -10 -10 -10 -10 -10 -10 -10 -10 -10 -10 -9 -9 -8 -8 -8 -8 -8 -8 -8 -8 -8 -8 -8 -9
-1 -2 -2 -3 -3 -4 -4 -5 -5 -6 -7 -7 -8 -8 -9 -9 -9 -10 -11 -10 -10 -10 -10 -10 -10 -10 -10 -10 -9 -9 -9 -8 -8 -8 -8 -8 -8 -8 -8 -8 -8 -8 -8
-2 -3 -3 -3 -4 -4 -5 -5 -6 -7 -7 -8 -9 -9 -10 -9 -9 -10 -10 -10 -10 -10 -10 -10 -10 -10 -10 -9 -9 -9 -8 -8 -8 -8 -8 -8 -8 -8 -8 -8 -8 -8 -8
-3 -3 -4 -4 -4 -5 -5 -6 -7 -8 -8 -9 -9 -10 -11 -11 -10 -10 -10 -10 -10 -10 -10 -10 -10 -9 -9 -9 -9 -8 -8 -8 -8 -8 -8 -8 -8 -8 -8 -8 -8 -8 -8
-3 -4 -4 -5 -5 -6 -6 -7 -8 -9 -9 -9 -10 -10 -10 -10 -10 -10 -10 -10 -10 -10 -10 -10 -9 -9 -9 -9 -8 -8 -8 -8 -8 -8 -8 -8 -8 -8 -8 -8 -8 -8 -8
-4 -4 -5 -5 -6 -7 -7 -8 -9 -9 -10 -10 -10 -10 -10 -10 -11 -11 -11 -11 -10 -10 -10 -9 -9 -9 -8 -8 -8 -8 -8 -8 -8 -8 -8 -8 -8 -8 -8 -8 -8 -8 -8
-5 -5 -5 -6 -7 -7 -8 -9 -9 -10 -10 -10 -11 -11 -11 -11 -11 -11 -11 -11 -10 -10 -9 -9 -9 -8 -8 -8 -8 -8 -8 -7 -8 -8 -8 -8 -8 -8 -8 -8 -7 -7 -7
-5 -5 -6 -7 -8 -8 -9 -9 -10 -10 -11 -11 -11 -11 -11 -11 -11 -11 -11 -10 -10 -9 -9 -9 -8 -8 -8 -8 -8 -8 -7 -7 -7 -7 -7 -7 -7 -7 -7 -7 -7 -7 -7
-6 -6 -7 -8 -8 -9 -10 -10 -10 -11 -11 -11 -11 -11 -11 -11 -11 -11 -11 -10 -10 -9 -9 -8 -8 -8 -8 -8 -7 -7 -7 -7 -7 -7 -6 -6 -6 -6 -6 -7 -7 -7 -7
Wind_Speed
14 14 14 14 15 15 13 14 15 15 15 14 12 10 9 8 6 5 3 3 2 2 2 2 3 1 2 3 4 4 5 6 12 10 6 6 8 10 13 17 19 18 21
15 15 14 14 15 15 14 15 15 15 14 13 11 10 8 7 6 4 2 1 2 3 3 3 4 3 3 4 4 5 5 6 9 13 8 6 9 10 11 11 14 19 19
16 16 15 15 15 15 16 16 15 15 14 11 10 9 8 7 5 4 3 3 3 3 3 3 4 3 4 4 5 5 5 8 7 10 11 8 8 10 12 13 13 10 17
16 15 15 15 15 15 16 15 15 15 13 11 11 10 8 6 4 4 4 4 5 5 4 4 4 5 6 5 5 6 7 7 7 9 11 11 10 10 9 10 11 8 10
15 15 15 15 15 16 16 15 14 13 13 12 11 9 6 5 5 5 5 5 6 6 6 5 5 6 9 8 8 6 7 6 7 9 12 12 11 9 9 9 13 11 11
15 15 16 17 16 15 15 14 14 13 12 11 9 7 6 5 6 4 4 4 5 7 7 5 5 7 11 14 15 16 15 11 10 10 12 14 14 11 9 10 12 15 16
15 17 17 17 16 14 15 15 14 12 11 9 7 6 6 7 5 3 6 5 6 7 7 6 6 7 10 5 11 16 15 20 21 15 15 14 14 11 10 12 14 16 18
16 17 17 17 16 13 13 13 12 9 9 8 7 5 5 6 4 4 7 6 7 7 7 6 6 6 7 10 8 7 8 11 17 14 11 12 12 11 13 16 17 15 14
17 16 15 14 14 14 14 12 9 9 8 6 5 4 3 4 4 4 7 4 6 7 7 7 8 7 14 17 10 9 11 10 18 22 24 23 27 28 22 13 10 12 17
15 15 14 13 13 13 12 10 8 8 7 5 4 2 2 1 1 4 7 3 5 5 6 7 12 14 17 18 11 10 13 12 12 13 15 19 16 17 22 12 9 12 15
14 14 13 12 12 12 10 8 8 6 5 3 2 1 2 2 1 4 7 3 4 5 5 5 7 17 19 21 20 11 15 16 10 10 11 11 10 9 10 9 9 10 15
14 14 12 11 10 10 9 7 6 5 4 2 2 2 2 3 2 5 8 10 11 6 6 5 8 19 22 23 17 16 21 18 8 9 10 11 10 11 11 11 12 12 13
14 13 11 10 9 8 7 7 5 4 4 3 3 2 3 3 5 8 10 14 16 9 8 15 19 22 21 14 15 19 16 8 8 9 11 11 9 10 11 11 12 12 14
14 11 9 8 8 7 6 5 4 4 4 4 4 4 4 4 4 3 4 7 11 9 8 13 19 19 15 14 13 11 7 8 10 10 12 12 12 10 11 11 13 13 13
11 9 8 7 7 6 5 4 5 4 4 3 2 3 4 4 7 13 10 7 7 9 11 6 6 6 5 6 7 7 7 9 10 10 12 13 13 13 13 11 11 12 13
9 7 6 5 5 4 4 2 2 2 2 1 3 4 4 8 13 15 16 17 17 18 12 5 5 6 7 9 10 10 10 10 11 11 12 12 13 13 14 13 12 12 14
9 7 5 5 5 4 4 4 3 2 2 5 6 7 8 11 14 15 16 16 16 15 7 5 6 6 7 7 8 10 11 11 11 11 11 12 12 13 13 14 13 13 14
8 8 7 5 5 4 4 3 3 3 3 4 6 10 11 12 15 16 15 12 8 8 5 6 6 7 7 8 9 10 11 12 11 11 12 12 12 13 13 14 13 14 15
7 5 5 4 4 3 3 3 2 3 3 4 4 6 10 12 14 14 12 5 6 7 7 6 6 7 8 9 10 10 11 12 12 12 12 13 12 13 13 14 14 19 18
6 8 6 4 3 3 3 3 3 3 4 4 4 4 5 7 6 7 6 5 6 6 7 7 7 8 8 9 10 10 11 12 12 12 12 13 13 13 14 16 15 15 15
5 4 4 3 3 2 3 3 3 3 4 4 4 7 11 6 6 7 7 6 6 7 7 7 8 9 9 9 9 11 12 12 12 12 13 13 13 13 14 14 15 15 14
4 3 2 2 2 2 3 3 3 4 4 5 4 6 12 6 5 6 7 7 7 7 6 8 9 9 9 9 10 11 12 13 13 13 13 13 14 14 14 14 13 12 12
4 2 2 1 2 4 4 3 3 4 4 5 5 6 6 6 6 6 7 7 8 8 7 8 10 10 8 10 10 11 12 13 13 14 15 15 14 13 12 12 13 13 13
3 2 2 2 2 3 3 4 4 4 5 5 5 5 6 6 7 8 8 8 8 8 8 9 9 13 15 14 14 14 15 16 17 14 16 13 12 11 11 11 11 13 12
2 2 2 2 3 3 4 4 4 4 5 6 6 6 6 7 7 7 8 8 9 10 11 12 11 12 14 17 18 18 21 26 25 16 9 9 10 12 11 11 11 12 12
2 2 3 3 3 3 4 4 4 5 5 6 6 6 7 7 7 8 8 9 9 10 11 11 13 17 19 19 20 22 25 26 24 20 10 7 9 10 11 10 12 11 11
Wind_Direction
144 136 135 136 139 143 144 139 137 136 136 133 131 127 128 132 133 136 158 153 178 270 273 239 246 270 281 280 281 280 276 274 284 289 281 292 302 299 299 295 296 294 293
130 130 130 133 135 136 133 130 130 130 127 127 125 122 121 116 111 112 119 130 231 260 272 273 267 264 269 274 273 271 274 273 282 294 297 297 294 294 293 291 300 298 295
125 127 131 133 133 132 130 128 127 125 122 118 113 110 106 101 92 69 42 1 326 298 282 272 271 276 279 277 282 288 289 294 294 301 303 298 294 294 294 293 293 292 296
123 130 133 132 130 127 124 123 123 122 118 110 104 101 102 103 89 56 22 348 328 317 305 283 265 254 255 260 278 277 282 286 290 292 295 296 292 288 289 298 300 289 296
126 130 128 124 121 118 118 119 117 113 109 105 104 104 105 104 79 53 13 347 338 325 313 299 288 291 291 286 282 268 280 282 285 290 294 297 298 298 298 297 301 303 296
127 124 120 118 116 116 117 115 110 105 104 104 107 113 113 101 86 43 353 336 326 314 304 305 314 306 296 300 304 305 303 302 302 296 297 297 298 295 294 297 301 302 299
118 116 115 115 114 115 117 112 109 109 109 107 107 106 108 118 104 30 343 338 309 294 289 290 294 295 307 307 301 302 302 303 302 298 295 294 294 292 291 292 292 291 292
112 112 114 116 118 118 113 109 109 110 110 109 109 105 110 140 118 29 349 346 311 299 296 291 290 294 301 304 294 296 287 292 293 294 288 288 293 290 284 290 292 292 289
112 115 119 122 121 116 110 108 108 106 104 104 102 99 90 120 112 21 353 327 309 313 321 328 323 304 306 311 314 303 297 295 302 301 300 300 301 301 302 301 296 297 297
115 116 116 116 114 110 107 103 99 99 103 109 114 118 115 116 71 357 347 331 320 320 319 317 318 314 312 316 313 302 303 300 297 299 301 300 297 296 301 298 294 296 297
115 113 110 108 105 103 100 97 99 102 107 116 134 192 190 162 44 337 336 330 300 302 301 301 304 313 313 312 310 302 300 304 300 299 299 297 296 294 294 288 285 288 291
112 107 103 98 99 100 99 95 94 93 83 70 55 30 34 54 10 327 327 330 329 321 308 298 302 313 313 312 312 308 308 312 305 300 298 298 298 298 297 294 290 283 275
105 100 96 90 88 92 96 98 89 74 68 46 37 26 2 7 347 345 342 333 328 324 311 314 315 315 315 311 311 314 319 313 303 302 302 299 295 292 296 297 294 289 283
102 98 96 94 89 79 74 73 77 68 55 38 27 16 359 350 348 354 327 314 317 314 304 307 314 313 314 319 320 318 312 304 309 306 305 303 302 300 300 300 301 304 300
98 95 91 88 93 91 83 75 73 82 87 54 15 2 345 326 316 322 324 313 310 304 311 303 302 306 317 321 315 312 313 313 312 308 305 304 304 304 302 302 299 300 296
100 94 90 89 84 84 81 72 111 113 88 345 308 308 308 310 318 324 322 319 319 318 319 310 310 317 318 320 320 318 315 313 310 307 303 300 301 301 302 302 299 297 296
95 93 86 82 78 67 54 41 18 338 285 298 305 313 316 320 325 324 320 319 322 328 331 319 313 312 311 312 311 310 308 307 306 303 300 299 299 299 299 300 300 299 297
82 79 80 72 64 59 52 32 18 4 342 330 334 329 330 334 332 328 328 332 329 329 318 311 308 310 311 310 308 306 305 306 305 303 301 299 299 299 299 298 299 298 299
76 69 70 72 59 48 38 19 1 350 332 318 319 330 337 335 332 334 342 339 320 318 316 312 308 306 305 304 303 301 301 301 301 302 300 299 299 299 298 298 299 300 302
73 67 58 50 53 40 19 356 348 341 328 320 322 316 317 324 325 329 333 320 316 314 314 310 306 302 302 301 300 300 301 300 301 300 299 299 299 298 298 300 301 302 301
98 80 46 35 46 31 357 342 338 328 316 312 309 316 330 337 329 322 323 322 318 314 309 307 304 301 299 298 298 298 298 298 298 298 298 298 299 300 300 299 298 298 300
84 84 56 36 16 1 341 328 317 309 310 312 313 323 332 335 320 316 317 316 312 307 302 302 299 295 294 296 298 298 297 296 297 297 296 297 298 298 297 298 301 309 317
73 69 32 9 354 331 331 317 315 313 312 313 318 323 326 323 319 316 314 313 311 307 302 300 299 298 297 297 294 290 289 290 291 291 293 295 297 299 303 310 315 321 323
65 45 0 340 335 328 322 319 318 316 316 315 317 317 316 316 314 312 310 306 306 304 304 303 299 297 298 301 299 295 290 289 289 288 289 296 307 313 317 319 320 321 323
55 16 349 340 333 324 319 316 315 315 319 319 316 315 312 309 307 305 304 304 305 306 306 307 304 302 301 301 301 300 300 304 309 312 308 312 312 313 315 317 321 325 327
37 355 336 328 322 318 315 313 312 315 313 307 303 299 299 300 301 301 304 304 307 310 310 310 306 306 305 305 303 305 310 315 321 329 330 312 314 317 322 323 324 329 331
Height
1410 1416 1421 1426 1431 1436 1442 1447 1453 1458 1464 1469 1474 1478 1481 1483 1484 1485 1485 1485 1484 1482 1481 1480 1478 1477 1475 1473 1470 1468 1465 1462 1455 1449 1449 1446 1443 1439 1435 1431 1427 1422 1418
1406 1412 1418 1424 1429 1434 1440 1445 1451 1456 1462 1468 1472 1476 1478 1480 1481 1482 1481 1480 1479 1478 1476 1475 1473 1471 1469 1467 1465 1462 1460 1457 1452 1444 1441 1439 1436 1432 1427 1423 1419 1415 1411
1404 1410 1416 1422 1427 1432 1438 1444 1449 1455 1461 1466 1470 1473 1476 1477 1478 1478 1478 1477 1475 1473 1472 1470 1468 1466 1464 1462 1459 1456 1454 1451 1447 1441 1435 1432 1428 1425 1420 1415 1411 1407 1403
1403 1409 1415 1420 1426 1431 1437 1443 1449 1455 1460 1464 1468 1471 1473 1474 1475 1474 1473 1472 1470 1469 1467 1465 1463 1461 1458 1456 1453 1451 1448 1444 1441 1436 1430 1425 1421 1418 1414 1408 1402 1398 1393
1404 1410 1414 1419 1425 1430 1436 1442 1449 1454 1459 1463 1466 1468 1470 1471 1471 1470 1469 1467 1466 1464 1462 1460 1457 1455 1453 1451 1448 1445 1443 1439 1434 1430 1424 1419 1414 1411 1407 1402 1396 1389 1383
1405 1409 1414 1419 1424 1430 1436 1443 1449 1454 1458 1461 1464 1466 1467 1467 1467 1466 1464 1463 1461 1459 1456 1454 1452 1449 1447 1445 1443 1440 1437 1434 1429 1424 1419 1414 1409 1405 1401 1396 1390 1383 1374
1406 1410 1414 1419 1425 1432 1439 1445 1450 1454 1457 1459 1462 1463 1463 1464 1463 1462 1460 1458 1456 1453 1450 1448 1445 1443 1442 1438 1436 1433 1430 1427 1425 1420 1413 1408 1404 1399 1395 1389 1384 1377 1370
1407 1411 1416 1422 1429 1435 1441 1446 1450 1453 1456 1458 1459 1460 1460 1460 1459 1457 1455 1453 1451 1448 1446 1443 1441 1438 1436 1433 1430 1426 1423 1420 1417 1412 1408 1403 1398 1393 1389 1384 1378 1371 1363
1409 1414 1420 1427 1433 1438 1442 1446 1449 1452 1454 1456 1457 1457 1457 1456 1455 1453 1451 1448 1445 1443 1441 1439 1436 1434 1431 1428 1425 1420 1415 1411 1409 1405 1401 1396 1392 1387 1383 1378 1372 1365 1356
1415 1420 1426 1432 1437 1440 1443 1447 1449 1452 1453 1454 1455 1455 1454 1453 1451 1449 1446 1443 1440 1438 1436 1433 1431 1428 1426 1423 1419 1414 1409 1404 1401 1396 1393 1389 1384 1380 1376 1372 1367 1361 1353
1420 1425 1431 1435 1439 1442 1444 1447 1449 1450 1451 1452 1452 1452 1451 1450 1448 1445 1442 1439 1436 1433 1430 1428 1425 1423 1421 1418 1414 1410 1405 1401 1396 1391 1386 1381 1377 1373 1369 1365 1360 1355 1348
1426 1431 1434 1438 1441 1443 1445 1447 1448 1449 1450 1450 1450 1449 1448 1446 1444 1441 1439 1436 1433 1430 1426 1423 1420 1418 1415 1412 1408 1404 1401 1397 1392 1386 1381 1375 1371 1366 1361 1357 1352 1347 1341
1431 1434 1437 1440 1442 1444 1445 1447 1448 1448 1448 1448 1447 1446 1445 1442 1440 1438 1435 1432 1429 1426 1422 1419 1416 1413 1410 1406 1403 1400 1397 1392 1387 1381 1376 1371 1366 1360 1355 1349 1343 1338 1332
1434 1436 1439 1441 1443 1444 1445 1446 1446 1446 1446 1445 1444 1442 1441 1438 1436 1433 1430 1427 1424 1421 1418 1415 1412 1408 1405 1403 1399 1395 1391 1388 1383 1377 1371 1366 1360 1354 1348 1342 1336 1329 1322
1436 1438 1440 1442 1444 1445 1445 1446 1445 1445 1444 1443 1441 1439 1437 1434 1432 1430 1427 1423 1420 1417 1414 1411 1407 1404 1401 1397 1394 1390 1387 1382 1378 1373 1367 1361 1355 1349 1343 1337 1331 1324 1317
1438 1440 1442 1443 1444 1444 1445 1445 1444 1444 1442 1440 1438 1436 1433 1431 1428 1426 1423 1420 1417 1414 1411 1407 1404 1401 1397 1393 1389 1385 1382 1378 1373 1368 1363 1357 1351 1344 1338 1332 1326 1319 1311
1440 1441 1443 1443 1444 1444 1444 1443 1442 1441 1440 1437 1435 1433 1431 1428 1426 1422 1419 1417 1414 1411 1407 1404 1400 1397 1394 1390 1386 1382 1378 1374 1369 1364 1358 1353 1347 1340 1334 1326 1320 1313 1306
1442 1443 1443 1444 1444 1443 1443 1442 1440 1438 1437 1435 1433 1431 1428 1426 1422 1419 1417 1414 1410 1407 1404 1400 1397 1394 1390 1387 1383 1379 1374 1369 1365 1359 1354 1349 1343 1336 1329 1322 1315 1309 1302
1443 1443 1444 1444 1443 1442 1441 1440 1438 1436 1434 1432 1430 1428 1425 1422 1419 1416 1413 1410 1406 1403 1400 1397 1394 1391 1387 1384 1380 1376 1371 1366 1361 1356 1350 1345 1339 1332 1325 1318 1311 1305 1298
1443 1444 1444 1443 1442 1441 1440 1438 1436 1434 1432 1429 1427 1424 1421 1418 1416 1413 1410 1407 1403 1400 1397 1394 1391 1388 1385 1381 1377 1372 1367 1362 1357 1352 1347 1341 1334 1328 1321 1314 1308 1301 1294
1444 1444 1443 1442 1441 1439 1438 1436 1434 1431 1429 1427 1424 1422 1419 1416 1413 1410 1407 1404 1401 1398 1395 1392 1389 1386 1383 1379 1374 1369 1364 1359 1354 1349 1343 1337 1330 1324 1317 1311 1305 1298 1292
1444 1443 1442 1441 1439 1438 1436 1433 1431 1429 1426 1424 1421 1419 1417 1414 1411 1408 1405 1402 1399 1396 1393 1390 1387 1384 1380 1376 1371 1366 1361 1356 1351 1346 1339 1333 1326 1320 1314 1308 1303 1298 1292
1443 1442 1441 1439 1437 1435 1433 1431 1428 1426 1424 1421 1419 1416 1414 1411 1408 1405 1403 1400 1397 1394 1391 1388 1384 1381 1377 1373 1369 1364 1359 1354 1349 1343 1336 1330 1324 1319 1314 1308 1303 1297 1290
1442 1440 1439 1437 1435 1432 1430 1428 1426 1423 1421 1418 1416 1413 1411 1408 1406 1403 1401 1398 1395 1392 1389 1386 1382 1379 1375 1371 1366 1362 1358 1353 1347 1341 1336 1331 1325 1320 1314 1308 1302 1296 1290
1440 1438 1436 1434 1432 1430 1427 1425 1423 1420 1418 1415 1413 1410 1408 1406 1403 1401 1398 1396 1393 1390 1387 1384 1380 1376 1372 1368 1364 1360 1356 1352 1347 1343 1337 1332 1326 1320 1314 1308 1302 1296 1290
1438 1436 1434 1431 1429 1426 1424 1422 1419 1417 1414 1412 1410 1407 1405 1403 1401 1398 1396 1394 1391 1388 1385 1381 1378 1374 1370 1366 1362 1359 1355 1350 1346 1342 1337 1331 1326 1320 1314 1308 1303 1297 1291